DW5963 Weather Reports


Display with metric or nautical units.
time (UTC)temp
F
wind
direction
speed
MPH
gust
MPH
rain 1hr
in
rain 24hr
in
rain mn
in
humidity
%
barometer
mb
20240224115551 37 360 7.0 0.0 0.00 0.00 0.00 71 1006.1
20240224115050 36 360 6.0 0.0 0.00 0.00 0.00 72 1006.2
20240224114548 36 360 6.0 0.0 0.00 0.00 0.00 72 1006.2
20240224114051 36 360 6.0 0.0 0.00 0.00 0.00 72 1006.3
20240224113548 36 360 7.0 0.0 0.00 0.00 0.00 71 1006.2
20240224113050 36 360 7.0 0.0 0.00 0.00 0.00 71 1006.3
20240224112548 37 360 7.0 0.0 0.00 0.00 0.00 71 1006.3
20240224112047 37 360 7.0 0.0 0.00 0.00 0.00 71 1006.4
20240224111042 36 360 6.0 0.0 0.00 0.00 0.00 71 1006.5
20240224110542 36 360 6.0 0.0 0.00 0.00 0.00 72 1006.4
20240224110052 36 360 6.0 0.0 0.00 0.00 0.00 72 1006.4
20240224105543 36 360 7.0 0.0 0.00 0.00 0.00 72 1006.5
20240224105041 36 360 6.0 0.0 0.00 0.00 0.00 72 1006.5
20240224104541 36 360 6.0 0.0 0.00 0.00 0.00 72 1006.5
20240224104044 36 360 6.0 0.0 0.00 0.00 0.00 72 1006.5
20240224103540 36 360 7.0 0.0 0.00 0.00 0.00 72 1006.6
20240224103043 36 360 8.0 0.0 0.00 0.00 0.00 71 1006.7
20240224102540 36 360 8.0 0.0 0.00 0.00 0.00 71 1006.7
20240224102039 36 360 9.0 0.0 0.00 0.00 0.00 72 1006.8
20240224101037 36 360 6.0 0.0 0.00 0.00 0.00 74 1007.0
20240224100534 35 360 3.0 0.0 0.00 0.00 0.00 74 1007.1
20240224100034 35 360 2.0 0.0 0.00 0.00 0.00 75 1007.1
20240224095533 34 360 3.0 0.0 0.00 0.00 0.00 76 1007.3
20240224095032 34 360 3.0 0.0 0.00 0.00 0.00 76 1007.5
20240224094532 34 360 3.0 0.0 0.00 0.00 0.00 76 1007.7
20240224094030 34 360 4.0 0.0 0.00 0.00 0.00 76 1007.8
20240224093530 34 360 4.0 0.0 0.00 0.00 0.00 76 1007.9
20240224093030 34 360 4.0 0.0 0.00 0.00 0.00 77 1007.9
20240224092529 34 360 4.0 0.0 0.00 0.00 0.00 77 1008.0
20240224092028 34 360 3.0 0.0 0.00 0.00 0.00 77 1008.1
20240224091037 34 360 4.0 0.0 0.00 0.00 0.00 77 1008.2
20240224090535 34 360 4.0 0.0 0.00 0.00 0.00 77 1008.3
20240224090038 34 360 5.0 0.0 0.00 0.00 0.00 77 1008.3
20240224085534 34 360 5.0 0.0 0.00 0.00 0.00 77 1008.4
20240224085034 34 360 5.0 0.0 0.00 0.00 0.00 77 1008.5
20240224084535 34 360 5.0 0.0 0.00 0.00 0.00 77 1008.5
20240224084035 34 360 6.0 0.0 0.00 0.00 0.00 77 1008.6
20240224083532 34 360 6.0 0.0 0.00 0.00 0.00 77 1008.6
20240224083035 34 360 5.0 0.0 0.00 0.00 0.00 78 1008.7
20240224082531 34 360 4.0 0.0 0.00 0.00 0.00 78 1008.8
20240224082034 34 360 5.0 0.0 0.00 0.00 0.00 78 1008.9
20240224081031 34 360 5.0 0.0 0.00 0.00 0.00 78 1009.0
20240224080525 34 360 4.0 0.0 0.00 0.00 0.00 78 1009.1
20240224080025 34 360 4.0 0.0 0.00 0.00 0.00 76 1009.1
20240224075524 35 360 6.0 0.0 0.00 0.00 0.00 76 1009.2
20240224075023 35 360 6.0 0.0 0.00 0.00 0.00 76 1009.5
20240224074523 35 360 6.0 0.0 0.00 0.00 0.00 76 1009.5
20240224074022 35 360 5.0 0.0 0.00 0.00 0.00 77 1009.6
20240224073521 34 360 3.0 0.0 0.00 0.00 0.00 77 1009.6
20240224073021 34 360 3.0 0.0 0.00 0.00 0.00 76 1009.7
20240224072521 35 360 3.0 0.0 0.00 0.00 0.00 75 1009.7
20240224072020 35 360 4.0 0.0 0.00 0.00 0.00 74 1009.9
20240224071018 36 360 4.0 0.0 0.00 0.00 0.00 74 1010.0
20240224070523 36 360 4.0 0.0 0.00 0.00 0.00 73 1010.0
20240224070017 36 360 4.0 0.0 0.00 0.00 0.00 74 1010.0
20240224065520 36 360 4.0 0.0 0.00 0.00 0.00 74 1010.2
20240224065017 36 360 5.0 0.0 0.00 0.00 0.00 74 1010.2
20240224064517 36 360 6.0 0.0 0.00 0.00 0.00 75 1010.3
20240224064019 36 360 6.0 0.0 0.00 0.00 0.00 75 1010.3
20240224063515 36 360 6.0 0.0 0.00 0.00 0.00 76 1010.4
20240224063018 35 360 7.0 0.0 0.00 0.00 0.00 76 1010.5
20240224062514 35 360 7.0 0.0 0.00 0.00 0.00 76 1010.6
20240224062014 35 360 7.0 0.0 0.00 0.00 0.00 77 1010.7
20240224061012 36 360 5.0 0.0 0.00 0.00 0.00 77 1010.6
20240224060513 35 360 4.0 0.0 0.00 0.00 0.00 77 1010.9
20240224060014 35 360 4.0 0.0 0.00 0.00 0.00 77 1011.0
20240224055510 35 360 4.0 0.0 0.00 0.00 0.00 77 1011.0
20240224055009 35 360 4.0 0.0 0.00 0.00 0.00 77 1011.1
20240224054508 35 360 4.0 0.0 0.00 0.00 0.00 78 1011.2
20240224054008 35 360 4.0 0.0 0.00 0.00 0.00 78 1011.3
20240224053507 35 360 4.0 0.0 0.00 0.00 0.00 79 1011.3
20240224053008 34 360 4.0 0.0 0.00 0.00 0.00 79 1011.3
20240224052509 35 360 5.0 0.0 0.00 0.00 0.00 78 1011.3
20240224052006 35 360 5.0 0.0 0.00 0.00 0.00 78 1011.4
20240224051006 35 360 4.0 0.0 0.00 0.00 0.00 78 1011.5
20240224050507 35 360 3.0 0.0 0.00 0.00 0.00 78 1011.5
20240224050013 35 360 4.0 0.0 0.00 0.00 0.00 78 1011.6
20240224045505 35 360 4.0 0.0 0.00 0.00 0.00 79 1011.8
20240224045007 35 360 4.0 0.0 0.00 0.00 0.00 80 1011.9
20240224044503 34 360 4.0 0.0 0.00 0.00 0.00 81 1011.9
20240224044003 34 360 3.0 0.0 0.00 0.00 0.00 80 1012.0
20240224043503 34 360 4.0 0.0 0.00 0.00 0.00 80 1012.0
20240224043002 35 360 4.0 0.0 0.00 0.00 0.00 80 1012.2
20240224042503 34 360 4.0 0.0 0.00 0.00 0.00 81 1012.4
20240224042101 34 360 4.0 0.0 0.00 0.00 0.00 81 1012.5
20240224041059 35 360 5.0 0.0 0.00 0.00 0.00 80 1012.7
20240224040619 35 360 5.0 0.0 0.00 0.00 0.00 80 1012.8
20240224040114 35 360 5.0 0.0 0.00 0.00 0.00 79 1012.9
20240224035558 36 360 5.0 0.0 0.00 0.00 0.00 79 1012.9
20240224035058 36 360 5.0 0.0 0.00 0.00 0.00 80 1013.0
20240224034621 36 360 6.0 0.0 0.00 0.00 0.00 80 1013.1
20240224034056 36 360 7.0 0.0 0.00 0.00 0.00 80 1013.1
20240224033558 36 360 7.0 0.0 0.00 0.00 0.00 80 1013.1
20240224033055 36 360 6.0 0.0 0.00 0.00 0.00 80 1013.1
20240224032555 36 360 5.0 0.0 0.00 0.00 0.00 80 1013.2
20240224032055 36 360 4.0 0.0 0.00 0.00 0.00 80 1013.2
20240224031607 36 360 3.0 0.0 0.00 0.00 0.00 81 1013.2
20240224031055 36 360 4.0 0.0 0.00 0.00 0.00 81 1013.3
20240224030555 36 360 5.0 0.0 0.00 0.00 0.00 81 1013.4
20240224030057 35 360 4.0 0.0 0.00 0.00 0.00 82 1013.3
20240224025554 35 360 2.0 0.0 0.00 0.00 0.00 81 1013.3
20240224025054 35 360 3.0 0.0 0.00 0.00 0.00 80 1013.3
20240224024051 36 360 5.0 0.0 0.00 0.00 0.00 80 1013.4
20240224023550 36 360 6.0 0.0 0.00 0.00 0.00 79 1013.4
20240224023109 36 360 7.0 0.0 0.00 0.00 0.00 80 1013.4
20240224022551 36 360 6.0 0.0 0.00 0.00 0.00 80 1013.4
20240224022050 36 360 6.0 0.0 0.00 0.00 0.00 80 1013.5
20240224021553 37 360 6.0 0.0 0.00 0.00 0.00 79 1013.5
20240224021052 37 360 5.0 0.0 0.00 0.00 0.00 78 1013.5
20240224020549 38 360 6.0 0.0 0.00 0.00 0.00 77 1013.6
20240224020104 38 360 6.0 0.0 0.00 0.00 0.00 77 1013.5
20240224015548 38 360 6.0 0.0 0.00 0.00 0.00 77 1013.6
20240224015048 38 360 6.0 0.0 0.00 0.00 0.00 78 1013.6
20240224014051 37 360 5.0 0.0 0.00 0.00 0.00 80 1013.7
20240224013554 36 360 4.0 0.0 0.00 0.00 0.00 79 1013.9
20240224013048 36 360 5.0 0.0 0.00 0.00 0.00 80 1014.0
20240224012548 36 360 4.0 0.0 0.00 0.00 0.00 79 1014.0
20240224012050 36 360 4.0 0.0 0.00 0.00 0.00 77 1014.0
20240224011547 37 360 3.0 0.0 0.00 0.00 0.00 77 1014.1
20240224011047 37 360 2.0 0.0 0.00 0.00 0.00 75 1014.0
20240224010547 38 360 4.0 0.0 0.00 0.00 0.00 74 1014.1
20240224010048 38 360 6.0 0.0 0.00 0.00 0.00 74 1014.0
20240224005547 39 360 7.0 0.0 0.00 0.00 0.00 74 1014.1
20240224005046 39 360 8.0 0.0 0.00 0.00 0.00 73 1014.1
20240224004048 40 360 8.0 0.0 0.00 0.00 0.00 71 1014.1
20240224003547 41 360 9.0 0.0 0.00 0.00 0.00 69 1014.1
20240224003047 42 360 10.0 0.0 0.00 0.00 0.00 68 1014.2
20240224002547 43 360 10.0 0.0 0.00 0.00 0.00 67 1014.1
20240224002047 43 360 9.0 0.0 0.00 0.00 0.00 67 1014.0
20240224001548 43 360 8.0 0.0 0.00 0.00 0.00 67 1014.0
20240224001046 44 360 7.0 0.0 0.00 0.00 0.00 66 1014.1
20240224000546 44 360 6.0 0.0 0.00 0.00 0.00 66 1014.1
20240224000047 44 360 6.0 0.0 0.00 0.00 0.00 64 1014.1
20240223235544 45 360 6.0 0.0 0.00 0.00 0.00 63 1014.2
20240223235045 45 360 6.0 0.0 0.00 0.00 0.00 63 1014.2
20240223234048 46 360 6.0 0.0 0.00 0.00 0.00 62 1014.2
20240223233540 46 360 7.0 0.0 0.00 0.00 0.00 62 1014.3
20240223233039 47 360 7.0 0.0 0.00 0.00 0.00 61 1014.4
20240223232539 47 360 8.0 0.0 0.00 0.00 0.00 61 1014.4
20240223232040 47 360 10.0 0.0 0.00 0.00 0.00 61 1014.5
20240223231540 47 360 10.0 0.0 0.00 0.00 0.00 60 1014.6
20240223231037 47 360 11.0 0.0 0.00 0.00 0.00 60 1014.6
20240223230537 47 360 11.0 0.0 0.00 0.00 0.00 60 1014.6
20240223230037 47 360 11.0 0.0 0.00 0.00 0.00 60 1014.7
20240223225539 47 360 10.0 0.0 0.00 0.00 0.00 59 1014.7
20240223225038 48 360 11.0 0.0 0.00 0.00 0.00 59 1014.7
20240223224036 47 360 12.0 0.0 0.00 0.00 0.00 58 1014.8
20240223223536 47 360 12.0 0.0 0.00 0.00 0.00 58 1014.8
20240223223036 47 360 13.0 0.0 0.00 0.00 0.00 58 1014.9
20240223222535 47 360 13.0 0.0 0.00 0.00 0.00 58 1014.9
20240223222036 48 360 13.0 0.0 0.00 0.00 0.00 58 1015.0
20240223221535 48 360 12.0 0.0 0.00 0.00 0.00 59 1014.9
20240223221035 48 360 12.0 0.0 0.00 0.00 0.00 60 1015.0
20240223220534 47 360 13.0 0.0 0.00 0.00 0.00 60 1015.1
20240223220035 47 360 14.0 0.0 0.00 0.00 0.00 60 1015.0
20240223215533 47 360 13.0 0.0 0.00 0.00 0.00 59 1015.1
20240223215032 48 360 11.0 0.0 0.00 0.00 0.00 61 1015.2
20240223214032 48 360 10.0 0.0 0.00 0.00 0.00 61 1015.3
20240223213532 48 360 10.0 0.0 0.00 0.00 0.00 61 1015.3
20240223213031 48 360 10.0 0.0 0.00 0.00 0.00 58 1015.4
20240223212530 47 360 10.0 0.0 0.00 0.00 0.00 60 1015.4
20240223212031 47 360 10.0 0.0 0.00 0.00 0.00 60 1015.5
20240223211536 47 360 10.0 0.0 0.00 0.00 0.00 60 1015.5
20240223211032 47 360 10.0 0.0 0.00 0.00 0.00 60 1015.4
20240223210530 47 360 11.0 0.0 0.00 0.00 0.00 60 1015.4
20240223210033 47 360 11.0 0.0 0.00 0.00 0.00 59 1015.4
20240223205530 47 360 11.0 0.0 0.00 0.00 0.00 59 1015.4
20240223205029 47 360 10.0 0.0 0.00 0.00 0.00 60 1015.5
20240223204031 47 360 9.0 0.0 0.00 0.00 0.00 57 1015.6
20240223203533 47 360 10.0 0.0 0.00 0.00 0.00 59 1015.6
20240223203031 47 360 9.0 0.0 0.00 0.00 0.00 58 1015.7
20240223202532 47 360 9.0 0.0 0.00 0.00 0.00 58 1015.7
20240223202033 47 360 9.0 0.0 0.00 0.00 0.00 57 1015.8
20240223201535 47 360 8.0 0.0 0.00 0.00 0.00 59 1015.8
20240223201030 47 360 9.0 0.0 0.00 0.00 0.00 57 1015.9
20240223200528 46 360 9.0 0.0 0.00 0.00 0.00 56 1016.0
20240223200035 46 360 9.0 0.0 0.00 0.00 0.00 56 1016.0
20240223195529 46 360 9.0 0.0 0.00 0.00 0.00 56 1016.2
20240223195026 46 360 8.0 0.0 0.00 0.00 0.00 56 1016.2
20240223194023 46 360 7.0 0.0 0.00 0.00 0.00 57 1016.3
20240223193523 45 360 7.0 0.0 0.00 0.00 0.00 58 1016.4
20240223193028 45 360 7.0 0.0 0.00 0.00 0.00 58 1016.5
20240223192521 45 360 7.0 0.0 0.00 0.00 0.00 58 1016.7
20240223192021 44 360 8.0 0.0 0.00 0.00 0.00 61 1016.8
20240223191525 44 360 7.0 0.0 0.00 0.00 0.00 60 1016.9
20240223191020 44 360 7.0 0.0 0.00 0.00 0.00 62 1017.0
20240223190519 44 360 7.0 0.0 0.00 0.00 0.00 63 1017.0
20240223190018 43 360 8.0 0.0 0.00 0.00 0.00 62 1017.1
20240223185517 43 360 8.0 0.0 0.00 0.00 0.00 63 1017.2
20240223185017 43 360 8.0 0.0 0.00 0.00 0.00 63 1017.2
20240223184016 43 360 8.0 0.0 0.00 0.00 0.00 66 1017.3
20240223183515 42 360 8.0 0.0 0.00 0.00 0.00 66 1017.4
20240223183021 42 360 7.0 0.0 0.00 0.00 0.00 65 1017.5
20240223182513 42 360 7.0 0.0 0.00 0.00 0.00 67 1017.5
20240223182013 41 360 8.0 0.0 0.00 0.00 0.00 66 1017.5
20240223181511 41 360 8.0 0.0 0.00 0.00 0.00 68 1017.5
20240223181016 41 360 8.0 0.0 0.00 0.00 0.00 68 1017.6
20240223180511 40 360 8.0 0.0 0.00 0.00 0.00 69 1017.6
20240223180013 40 360 8.0 0.0 0.00 0.00 0.00 69 1017.5
20240223175509 40 360 8.0 0.0 0.00 0.00 0.00 70 1017.6
20240223175011 39 360 9.0 0.0 0.00 0.00 0.00 69 1017.6
20240223174012 39 360 10.0 0.0 0.00 0.00 0.00 71 1017.6
20240223173508 38 360 10.0 0.0 0.00 0.00 0.00 71 1017.7
20240223173007 38 360 10.0 0.0 0.00 0.00 0.00 71 1017.8
20240223172509 38 360 9.0 0.0 0.00 0.00 0.00 72 1017.8
20240223172009 38 360 10.0 0.0 0.00 0.00 0.00 73 1017.8
20240223171509 37 360 10.0 0.0 0.00 0.00 0.00 74 1017.9
20240223171004 37 360 10.0 0.0 0.00 0.00 0.00 73 1017.9
20240223170503 37 360 9.0 0.0 0.00 0.00 0.00 73 1017.9
20240223170004 37 360 8.0 0.0 0.00 0.00 0.00 74 1017.8
20240223165502 36 360 8.0 0.0 0.00 0.00 0.00 75 1017.8
20240223165001 36 360 8.0 0.0 0.00 0.00 0.00 75 1017.8
20240223164059 35 360 8.0 0.0 0.00 0.00 0.00 76 1017.8
20240223163558 35 360 8.0 0.0 0.00 0.00 0.00 77 1017.8
20240223163058 35 360 8.0 0.0 0.00 0.00 0.00 77 1017.8
20240223162556 35 360 8.0 0.0 0.00 0.00 0.00 78 1017.8
20240223162056 35 360 8.0 0.0 0.00 0.00 0.00 79 1017.8
20240223161555 34 360 8.0 0.0 0.00 0.00 0.00 79 1017.8
20240223161054 34 360 7.0 0.0 0.00 0.00 0.00 80 1017.8
20240223160553 34 360 7.0 0.0 0.00 0.00 0.00 80 1017.8
20240223160053 34 360 7.0 0.0 0.00 0.00 0.00 81 1017.7
20240223155551 33 360 6.0 0.0 0.00 0.00 0.00 81 1017.6
20240223155054 33 360 6.0 0.0 0.00 0.00 0.00 82 1017.6
20240223154052 33 360 5.0 0.0 0.00 0.00 0.00 84 1017.5
20240223153551 32 360 5.0 0.0 0.00 0.00 0.00 85 1017.5
20240223153053 32 360 5.0 0.0 0.00 0.00 0.00 85 1017.5
20240223152549 32 360 5.0 0.0 0.00 0.00 0.00 86 1017.4
20240223152052 32 360 4.0 0.0 0.00 0.00 0.00 87 1017.6
20240223151548 31 360 4.0 0.0 0.00 0.00 0.00 87 1017.5
20240223151047 31 360 3.0 0.0 0.00 0.00 0.00 87 1017.6
20240223150547 31 360 3.0 0.0 0.00 0.00 0.00 87 1017.5
20240223150047 30 360 2.0 0.0 0.00 0.00 0.00 87 1017.4
20240223145545 30 360 1.0 0.0 0.00 0.00 0.00 87 1017.3
20240223145047 30 360 1.0 0.0 0.00 0.00 0.00 87 1017.2
20240223144043 30 360 0.0 0.0 0.00 0.00 0.00 87 1017.2
20240223143543 30 360 0.0 0.0 0.00 0.00 0.00 88 1017.2
20240223143042 29 360 0.0 0.0 0.00 0.00 0.00 88 1017.1
20240223142541 29 360 1.0 0.0 0.00 0.00 0.00 88 1017.1
20240223142042 29 360 1.0 0.0 0.00 0.00 0.00 88 1017.0
20240223141541 29 360 1.0 0.0 0.00 0.00 0.00 88 1016.9
20240223141040 29 360 1.0 0.0 0.00 0.00 0.00 88 1017.0
20240223140541 29 360 1.0 0.0 0.00 0.00 0.00 88 1016.8
20240223140039 29 360 1.0 0.0 0.00 0.00 0.00 87 1016.7
20240223135537 29 360 1.0 0.0 0.00 0.00 0.00 87 1016.6
20240223135036 29 360 3.0 0.0 0.00 0.00 0.00 87 1016.5
20240223134033 30 360 4.0 0.0 0.00 0.00 0.00 88 1016.3
20240223133536 30 360 4.0 0.0 0.00 0.00 0.00 87 1016.3
20240223133042 30 360 5.0 0.0 0.00 0.00 0.00 87 1016.3
20240223132537 30 360 6.0 0.0 0.00 0.00 0.00 87 1016.3
20240223132033 30 360 7.0 0.0 0.00 0.00 0.00 87 1016.4
20240223131532 30 360 6.0 0.0 0.00 0.00 0.00 87 1016.2
20240223131031 30 360 6.0 0.0 0.00 0.00 0.00 87 1016.1
20240223130532 30 360 7.0 0.0 0.00 0.00 0.00 87 1016.1
20240223130043 30 360 7.0 0.0 0.00 0.00 0.00 87 1016.0
20240223125531 30 360 6.0 0.0 0.00 0.00 0.00 87 1016.0
20240223125030 30 360 6.0 0.0 0.00 0.00 0.00 87 1016.0
20240223124038 30 360 7.0 0.0 0.00 0.00 0.00 87 1015.9
20240223123538 30 360 7.0 0.0 0.00 0.00 0.00 87 1015.8
20240223123038 30 360 7.0 0.0 0.00 0.00 0.00 88 1015.8
20240223122537 30 360 7.0 0.0 0.00 0.00 0.00 88 1015.7
20240223122037 30 360 7.0 0.0 0.00 0.00 0.00 88 1015.8
20240223121537 30 360 6.0 0.0 0.00 0.00 0.00 88 1015.7
20240223121037 30 360 6.0 0.0 0.00 0.00 0.00 88 1015.6
20240223120536 30 360 6.0 0.0 0.00 0.00 0.00 88 1015.7
20240223120037 30 360 6.0 0.0 0.00 0.00 0.00 88 1015.6